FW7886 Weather Reports


Display with metric or nautical units.
time (UTC)temp
F
wind
direction
speed
MPH
gust
MPH
rain 1hr
in
rain 24hr
in
rain mn
in
humidity
%
barometer
mb
20260502130413 58 145 1.0 3.0 0.00 2.84 0.28 94 1015.7
20260502123338 55 147 0.0 3.0 0.00 2.84 0.28 97 1015.2
20260502122325 55 140 0.0 2.0 0.00 2.84 0.28 98 1015.3
20260502122046 55 145 0.0 1.0 0.00 2.84 0.28 98 1015.0
20260502121313 54 146 0.0 1.0 0.00 2.84 0.28 98 1014.8
20260502121029 54 145 0.0 1.0 0.00 2.84 0.28 98 1014.8
20260502120522 54 145 0.0 2.0 0.00 2.84 0.28 98 1014.5
20260502115755 54 145 0.0 2.0 0.00 2.84 0.28 98 1014.6
20260502115249 54 146 0.0 1.0 0.00 2.84 0.28 98 1014.6
20260502114742 54 145 0.0 2.0 0.00 2.84 0.28 98 1014.6
20260502114237 54 156 0.0 2.0 0.00 2.84 0.28 98 1014.3
20260502113731 54 142 0.0 1.0 0.00 2.84 0.28 98 1014.4
20260502113225 54 142 0.0 2.0 0.00 2.84 0.28 98 1014.3
20260502112719 54 142 0.0 2.0 0.00 2.84 0.28 98 1014.2
20260502112213 54 152 0.0 3.0 0.00 2.84 0.28 98 1014.2
20260502111707 54 150 0.0 3.0 0.00 2.84 0.28 98 1014.1
20260502111201 54 145 0.0 3.0 0.00 2.84 0.28 98 1013.9
20260502110655 54 134 0.0 3.0 0.00 2.84 0.28 98 1014.0
20260502110149 54 153 0.0 3.0 0.00 2.84 0.28 98 1013.6
20260502105644 54 156 0.0 4.0 0.00 2.84 0.28 98 1013.7
20260502105137 54 153 1.0 4.0 0.00 2.84 0.28 98 1013.7
20260502104631 54 147 1.0 3.0 0.00 2.84 0.28 98 1013.7
20260502104126 54 135 1.0 3.0 0.00 2.84 0.28 98 1013.7
20260502103619 54 142 0.0 3.0 0.00 2.84 0.28 98 1013.7
20260502103114 54 146 0.0 3.0 0.00 2.84 0.28 98 1013.8
20260502102607 54 134 1.0 3.0 0.00 2.84 0.28 98 1013.6
20260502102324 54 147 0.0 2.0 0.00 2.84 0.28 98 1013.6
20260502101555 54 151 0.0 2.0 0.00 2.84 0.28 98 1013.5
20260502101050 53 154 0.0 3.0 0.00 2.84 0.28 98 1013.6
20260502100544 53 149 1.0 4.0 0.00 2.84 0.28 98 1013.5
20260502091530 53 161 2.0 8.0 0.02 2.85 0.28 99 1013.0
20260502091032 53 137 1.0 6.0 0.02 2.85 0.28 99 1013.0
20260502090532 53 205 2.0 7.0 0.02 2.85 0.28 99 1012.8
20260502071525 54 163 2.0 6.0 0.09 2.81 0.24 99 1013.1
20260502071022 54 132 1.0 6.0 0.09 2.79 0.23 99 1013.0
20260502070516 54 151 0.0 3.0 0.10 2.79 0.22 99 1013.3
20260502070228 54 149 1.0 3.0 0.10 2.78 0.21 99 1013.1
20260502065504 54 132 1.0 3.0 0.10 2.78 0.21 99 1012.9
20260502065222 54 144 0.0 2.0 0.09 2.77 0.20 99 1013.3
20260502064713 54 137 0.0 2.0 0.08 2.76 0.19 99 1013.4
20260502063946 54 131 0.0 2.0 0.08 2.75 0.18 99 1013.0
20260502063441 54 130 0.0 2.0 0.08 2.74 0.17 99 1013.2
20260502062935 54 134 1.0 4.0 0.11 2.74 0.17 99 1013.1
20260502062428 54 152 1.0 4.0 0.13 2.74 0.17 99 1012.6
20260502061923 54 143 0.0 5.0 0.14 2.73 0.16 99 1012.6
20260502061904 54 157 0.0 5.0 0.14 2.72 0.15 99 1012.8
20260502060911 54 133 0.0 3.0 0.13 2.70 0.13 99 1013.6
20260502060404 54 156 0.0 2.0 0.12 2.69 0.12 99 1013.7
20260502055859 54 148 0.0 3.0 0.11 2.68 0.11 99 1013.7
20260502055615 54 131 0.0 3.0 0.12 2.68 0.11 99 1013.5
20260502055112 54 134 1.0 6.0 0.14 2.68 0.11 99 1013.5
20260502054340 54 146 1.0 6.0 0.16 2.67 0.10 99 1013.4
20260502053835 54 149 1.0 5.0 0.17 2.67 0.10 99 1013.4
20260502053328 54 144 1.0 5.0 0.15 2.65 0.09 99 1013.3
20260502052822 54 130 1.0 8.0 0.13 2.63 0.06 99 1013.1
20260502052803 54 130 1.0 8.0 0.10 2.60 0.04 99 1013.6
20260502052029 54 135 1.0 4.0 0.09 2.59 0.02 99 1013.2
20260502051309 54 125 1.0 3.0 0.08 2.58 0.01 99 1013.4
20260502050810 54 144 1.0 4.0 0.07 2.57 0.00 99 1013.2
20260502050308 54 139 1.0 4.0 0.07 2.57 0.00 99 1013.4
20260502045808 54 156 1.0 5.0 0.08 2.57 2.57 99 1013.2
20260502045306 54 139 1.0 6.0 0.08 2.56 2.56 99 1013.0
20260502044805 54 132 1.0 6.0 0.05 2.53 2.54 99 1013.2
20260502044305 54 149 1.0 4.0 0.03 2.51 2.51 99 1013.2
20260502044240 54 130 1.0 5.0 0.02 2.50 2.50 99 1013.2
20260502043528 54 141 2.0 7.0 0.02 2.50 2.50 99 1012.7
20260502042804 55 140 1.0 7.0 0.02 2.50 2.50 99 1012.5
20260502042305 55 143 1.0 6.0 0.02 2.50 2.50 99 1012.4
20260502042021 55 175 1.0 6.0 0.02 2.50 2.50 99 1012.5
20260502041303 55 155 1.0 5.0 0.02 2.50 2.50 99 1012.5
20260502040804 55 158 1.0 4.0 0.02 2.50 2.50 99 1012.6
20260502040305 55 151 1.0 6.0 0.02 2.50 2.50 99 1012.7
20260502035802 55 182 1.0 6.0 0.01 2.49 2.49 99 1012.8
20260502035306 55 121 1.0 5.0 0.00 2.48 2.48 99 1012.8
20260502035025 55 142 1.0 6.0 0.00 2.48 2.48 99 1012.7
20260502034304 55 132 2.0 6.0 0.00 2.48 2.48 99 1012.5
20260502033803 55 130 2.0 6.0 0.00 2.48 2.48 99 1012.6
20260502033532 55 142 1.0 6.0 0.00 2.48 2.48 99 1012.5
20260502032804 55 157 1.0 5.0 0.00 2.48 2.48 99 1012.5
20260502032536 55 164 1.0 5.0 0.00 2.48 2.48 99 1012.7
20260502032028 55 125 1.0 6.0 0.00 2.48 2.48 99 1012.6
20260502031302 55 139 1.0 6.0 0.00 2.48 2.48 99 1012.4
20260502030802 55 167 1.0 4.0 0.00 2.48 2.48 99 1012.5
20260502030302 55 146 1.0 5.0 0.00 2.48 2.48 99 1012.5
20260502030024 55 134 1.0 5.0 0.00 2.48 2.48 99 1012.4
20260502025306 55 151 1.0 4.0 0.00 2.48 2.48 99 1012.5
20260502024803 55 143 1.0 4.0 0.00 2.48 2.48 99 1012.2
20260502024303 55 115 1.0 4.0 0.00 2.48 2.48 99 1012.5
20260502023802 56 163 1.0 3.0 0.00 2.48 2.48 99 1012.4
20260502023303 55 149 1.0 7.0 0.00 2.48 2.48 99 1012.4
20260502022803 56 146 1.0 7.0 0.00 2.48 2.48 99 1012.4
20260502022530 56 157 1.0 7.0 0.00 2.48 2.48 99 1012.3
20260502022028 56 115 1.0 6.0 0.00 2.48 2.48 99 1012.2
20260502021303 56 155 1.0 6.0 0.00 2.48 2.48 99 1012.2
20260502020800 56 142 1.0 5.0 0.00 2.48 2.48 99 1011.9
20260502020301 56 159 1.0 5.0 0.00 2.48 2.48 99 1011.8
20260502020238 56 137 1.0 4.0 0.00 2.48 2.48 99 1011.6
20260502015301 56 149 1.0 5.0 0.00 2.48 2.48 99 1011.4
20260502014756 56 125 1.0 5.0 0.00 2.48 2.48 99 1011.2
20260502014525 56 135 0.0 3.0 0.00 2.48 2.48 99 1011.2
20260502013758 56 137 1.0 7.0 0.01 2.48 2.48 99 1011.5
20260502013257 56 152 1.0 7.0 0.01 2.48 2.48 99 1011.3
20260502012756 56 140 1.0 5.0 0.03 2.48 2.48 99 1011.0
20260502012256 56 151 1.0 7.0 0.03 2.48 2.48 99 1011.2
20260502011756 56 149 1.0 7.0 0.03 2.48 2.48 99 1011.1
20260502011250 56 48 1.0 5.0 0.03 2.48 2.48 99 1010.2
20260502010744 56 160 1.0 6.0 0.04 2.48 2.48 99 1009.9
20260502010238 56 135 2.0 6.0 0.04 2.48 2.48 99 1010.0
20260502005732 56 248 2.0 8.0 0.04 2.48 2.48 99 1009.5
20260502005226 56 166 2.0 8.0 0.04 2.48 2.48 99 1009.1
20260502004947 56 195 1.0 6.0 0.06 2.48 2.48 99 1009.2
20260502004214 56 139 1.0 5.0 0.07 2.48 2.48 99 1009.7
20260502003708 56 266 1.0 5.0 0.10 2.47 2.47 99 1010.2
20260502003202 56 157 0.0 2.0 0.12 2.46 2.47 99 1010.7
20260502002656 56 153 1.0 4.0 0.14 2.45 2.45 99 1010.7
20260502002415 56 130 1.0 5.0 0.16 2.45 2.45 99 1010.7
20260502001905 56 130 1.0 5.0 0.16 2.45 2.45 99 1010.8
20260502001136 56 139 1.0 4.0 0.16 2.45 2.45 99 1010.6
20260502000630 56 135 0.0 4.0 0.15 2.44 2.44 99 1011.2
20260502000124 56 145 1.0 5.0 0.16 2.44 2.44 99 1011.3
20260501235618 55 146 1.0 5.0 0.16 2.44 2.44 99 1011.4
20260501235112 55 150 0.0 5.0 0.16 2.44 2.44 99 1011.8
20260501235054 55 145 1.0 5.0 0.14 2.42 2.42 99 1012.1
20260501234100 55 164 1.0 5.0 0.11 2.39 2.40 99 1011.9
20260501233554 55 149 1.0 7.0 0.09 2.36 2.37 99 1011.5
20260501233048 55 153 1.0 7.0 0.07 2.33 2.33 99 1011.2
20260501232542 56 144 1.0 5.0 0.04 2.30 2.31 99 1011.4
20260501232305 56 139 2.0 9.0 0.04 2.29 2.29 99 1010.9
20260501231530 56 149 2.0 9.0 0.05 2.30 2.29 99 1010.8
20260501231024 56 130 2.0 9.0 0.05 2.31 2.29 99 1011.1
20260501230619 57 152 1.0 4.0 0.05 2.30 2.28 99 1011.2
20260501230601 56 194 1.0 7.0 0.06 2.31 2.29 99 1011.4
20260501230449 56 135 1.0 5.0 0.05 2.30 2.28 99 1011.2
20260501230340 56 137 1.0 5.0 0.05 2.30 2.28 99 1010.6
20260501230226 57 136 1.0 4.0 0.05 2.30 2.28 99 1010.6
20260501224454 57 152 1.0 4.0 0.05 2.30 2.28 99 1011.2
20260501223948 57 137 1.0 8.0 0.06 2.30 2.28 99 1011.0
20260501223442 57 166 1.0 8.0 0.06 2.29 2.27 99 1011.0
20260501222936 57 129 1.0 4.0 0.06 2.28 2.26 99 1011.2
20260501222909 57 165 1.0 4.0 0.08 2.27 2.25 99 1011.2
20260501221924 57 173 1.0 5.0 0.13 2.27 2.25 99 1011.2
20260501221640 57 152 0.0 5.0 0.25 2.26 2.24 99 1011.2
20260501220912 57 142 1.0 3.0 0.31 2.25 2.23 99 1010.9
20260501220406 57 146 1.0 3.0 0.34 2.26 2.23 99 1010.7
20260501220121 58 151 1.0 4.0 0.37 2.26 2.23 99 1010.5
20260501215354 58 127 1.0 4.0 0.40 2.26 2.23 99 1010.6
20260501214848 58 154 1.0 3.0 0.42 2.26 2.23 99 1010.9
20260501214605 58 153 1.0 3.0 0.43 2.28 2.23 99 1011.0
20260501213836 58 151 0.0 3.0 0.44 2.38 2.22 99 1011.2
20260501213555 58 171 0.0 2.0 0.45 2.50 2.21 99 1011.5
20260501212825 58 155 0.0 1.0 0.46 2.58 2.20 99 1011.7
20260501212318 58 153 1.0 3.0 0.46 2.76 2.17 99 1012.3
20260501211812 58 153 2.0 7.0 0.43 2.82 2.09 99 1012.1
20260501211804 58 49 2.0 7.0 0.36 2.73 1.97 99 1012.8
20260501210800 58 90 1.0 4.0 0.35 2.72 1.92 99 1012.3
20260501210254 58 138 1.0 4.0 0.38 2.70 1.89 99 1011.3
20260501205748 58 135 1.0 4.0 0.38 2.69 1.85 99 1010.9
20260501205242 58 137 2.0 6.0 0.38 2.69 1.83 99 1010.6
20260501204741 58 117 2.0 8.0 0.42 2.68 1.81 99 1010.1
20260501204241 58 121 2.0 12.0 0.48 2.67 1.80 99 1010.2
20260501203743 58 157 2.0 12.0 0.48 2.67 1.78 99 1009.9
20260501203240 59 92 2.0 7.0 0.48 2.66 1.76 99 1009.8
20260501202741 59 130 2.0 8.0 0.49 2.64 1.74 99 1010.3
20260501202238 59 127 2.0 8.0 0.50 2.62 1.70 99 1010.4
20260501201738 60 142 1.0 6.0 0.56 2.58 1.64 99 1011.2
20260501201239 60 138 0.0 4.0 0.57 2.58 1.60 99 1011.6
20260501200737 60 139 1.0 3.0 0.56 2.70 1.55 99 1011.4
20260501200236 60 136 1.0 4.0 0.57 2.90 1.51 99 1011.2
20260501200001 60 133 1.0 4.0 0.57 2.93 1.47 99 1010.8
20260501195236 61 163 1.0 3.0 0.60 2.95 1.45 99 1010.4
20260501194737 61 157 1.0 3.0 0.62 2.90 1.41 99 1010.7
20260501194236 61 152 1.0 5.0 0.67 2.82 1.31 99 1011.1
20260501193736 61 144 1.0 5.0 0.79 2.81 1.31 99 1011.1
20260501193237 61 176 0.0 3.0 0.87 2.79 1.28 99 1010.6
20260501192732 61 168 1.0 5.0 0.93 2.75 1.24 99 1011.1
20260501192232 61 178 1.0 6.0 0.94 2.71 1.20 99 1011.0
20260501191732 61 151 1.0 6.0 0.86 2.59 1.09 99 1010.9
20260501191231 61 157 1.0 5.0 0.86 2.53 1.03 99 1011.1
20260501190731 61 142 1.0 5.0 0.85 2.49 0.99 99 1010.5
20260501190227 61 140 1.0 5.0 0.84 2.44 0.94 99 1010.3
20260501185728 62 165 2.0 8.0 0.85 2.41 0.91 99 1010.3
20260501185229 62 125 2.0 8.0 0.82 2.36 0.86 99 1009.9
20260501184728 62 41 1.0 5.0 0.75 2.28 0.79 99 1010.9
20260501184228 62 41 1.0 5.0 0.63 2.15 0.64 98 1010.9
20260501183729 62 41 1.0 4.0 0.48 2.00 0.51 98 1011.0
20260501183454 62 41 1.0 5.0 0.40 1.92 0.41 98 1011.0
20260501182727 62 41 1.0 8.0 0.30 1.82 0.32 98 1010.6
20260501182226 62 41 1.0 8.0 0.25 1.77 0.27 98 1010.2
20260501181721 63 40 2.0 7.0 0.21 1.73 0.22 98 1010.4
20260501181221 63 137 2.0 6.0 0.15 1.67 0.16 98 1009.8
20260501180722 63 189 1.0 6.0 0.12 1.64 0.13 97 1009.8
20260501180222 64 175 1.0 6.0 0.08 1.60 0.09 97 1010.2
20260501175952 64 120 1.0 5.0 0.04 1.56 0.05 97 1010.0
20260501175222 64 191 2.0 10.0 0.02 1.54 0.03 97 1009.8
20260501174723 64 207 2.0 10.0 0.01 1.53 0.02 96 1009.9
20260501174222 65 162 1.0 6.0 0.00 1.52 0.02 96 1009.8
20260501173723 65 116 1.0 6.0 0.00 1.52 0.01 96 1010.1
20260501173219 65 144 0.0 5.0 0.00 1.52 0.01 96 1010.6
20260501172718 65 137 0.0 4.0 0.00 1.52 0.01 96 1011.0
20260501172217 65 136 0.0 5.0 0.00 1.52 0.01 96 1010.9
20260501171718 65 173 0.0 5.0 0.00 1.52 0.01 96 1011.0
20260501171217 65 143 0.0 5.0 0.00 1.52 0.01 96 1010.8
20260501170718 65 122 0.0 5.0 0.00 1.52 0.01 96 1011.1
20260501170218 66 135 0.0 4.0 0.00 1.52 0.01 96 1011.0
20260501165934 66 144 1.0 5.0 0.00 1.52 0.01 96 1011.1
20260501165218 66 147 0.0 5.0 0.00 1.56 0.01 96 1011.5
20260501164937 66 154 0.0 2.0 0.00 1.57 0.01 97 1011.6
20260501164206 66 148 0.0 2.0 0.00 1.57 0.01 97 1012.0
20260501163929 66 139 0.0 3.0 0.00 1.57 0.01 97 1012.2
20260501163206 66 113 1.0 4.0 0.00 1.57 0.01 97 1012.2
20260501162706 65 142 1.0 5.0 0.00 1.57 0.01 97 1012.2
20260501162205 66 146 1.0 5.0 0.00 1.57 0.01 97 1012.2
20260501161706 66 161 0.0 4.0 0.00 1.57 0.01 97 1012.2
20260501161415 66 40 1.0 5.0 0.00 1.57 0.01 97 1012.4
20260501161300 66 146 0.0 5.0 0.00 1.57 0.01 97 1012.5
20260501160202 66 40 1.0 6.0 0.00 1.57 0.01 97 1012.2
20260501155703 66 40 1.0 6.0 0.00 1.57 0.01 97 1011.9
20260501155202 66 40 2.0 7.0 0.00 1.57 0.01 96 1011.8
20260501154703 67 40 2.0 7.0 0.00 1.57 0.01 96 1012.0
20260501154201 67 40 1.0 6.0 0.00 1.57 0.01 96 1012.6
20260501153701 67 40 1.0 4.0 0.00 1.57 0.01 96 1012.9
20260501153203 67 40 0.0 4.0 0.00 1.57 0.01 96 1012.9
20260501152659 67 40 0.0 1.0 0.00 1.57 0.01 97 1012.9
20260501152637 67 40 0.0 3.0 0.00 1.57 0.01 97 1013.0
20260501151656 66 40 1.0 3.0 0.00 1.57 0.01 97 1013.1
20260501151159 66 40 1.0 3.0 0.00 1.57 0.01 97 1013.0
20260501150652 66 40 1.0 3.0 0.00 1.57 0.01 97 1013.0
20260501150147 66 40 0.0 3.0 0.00 1.57 0.01 97 1012.8
20260501145641 66 40 1.0 4.0 0.00 1.57 0.01 97 1012.7
20260501145402 66 40 0.0 4.0 0.00 1.57 0.01 97 1012.6